DELTA 1 DEB, 21320

Orbit data source: Space-Track

DELTA 1 DEB, 21320 is space debris in SSO originally from a launch on Thu, 12 Jun 1975 UTC launched from the Air Force Western Test Range (AFWTR). Debris objects in space refer to the collection of defunct objects orbiting the Earth. Examples of debris include non-operational satellites, rocket bodies, and fragments generated from explosions, collisions, or faulty payload assembly.

Loading next visibility...
Identifier
21320, 1975-052AN
Orbit
SSO
Country
Flag of USUS
Related business
Manufacturer
Unknown
Mission
Spacecraft
Bus & Motor
Unknown
Mass
Unknown
Launch date (UTC)
1975-06-12 (51 years ago)
Launch vehicle
Unknown
Launch site
Air Force Western Test Range (AFWTR)
Object type
Payload
Rocket body
Debris
Shape & HBR
Unknown shape, 0.1 m
Radar Cross Section
Medium (>0.1 m² and <1 m²)

Expand to show TLE details & history
Last TLE update: 2 days ago

TLE from 2 days ago
0 DELTA 1 DEB
1 21320U 75052AN  26171.48243234  .00000199  00000-0  24425-3 0  9993
2 21320  99.5066  50.4841 0128808  96.6268  25.7732 13.73757540756018
Epoch: 2026-06-20T11:34Z
TLE epoch observation values (Epoch: 2026-06-20T11:34:42.154Z)
Latitude
55.85825°
Longitude
162.3325°
Altitude
910.13 km
Speed
7.445 km/s
True Right ascension
16h 18m 49s
True Declination
55° 42' 06"
Sunlit
Object was in daylight at epoch
Visualization orbit readout
Latitude
Unknown
Longitude
Unknown
Altitude
Unknown
Speed
Unknown
Apparent Right ascension
Unknown
Apparent Declination
Unknown
Sunlit
N/A
Visualization observer readout
Local Sidereal Time
14:25:13
Azimuth
Unknown
Elevation
Unknown
Doppler factor
Unknown
Orbital elements
Apogee altitude
1,078.193 km
Perigee altitude
888.549 km
Semi-major axis
7,361.508 km
Eccentricity
0.01288
Inclination
99.5066°
RAAN
50.4841°
Arg. of periapsis
96.6268°
True anomaly
26.42442°
Mean anomaly
25.7732°
Eccentric anomaly
26.09786°
Mean motion
3.43632 °/min
Orbital period
104.76 mins
BSTAR
0.00024425
Loading maneuver chart data...
Computing Atmospheric mass density...
Loading historical data...
Loading historical data...
Loading historical data...
Loading historical data...
Loading historical data...
Loading historical data...
Loading historical data...

Documentation

Showing up to 5 results
|